Regional Weather Roundup
Issued by NWS

Home | Current Version | Previous Version | Text Only | Print | Product List | Glossary On
Versions: 1 2 3 4 5 6 7 8 9 10 11 12 13 14 15 16 17 18 19 20 21 22 23 24 25 26 27 28 29 30 31 32 33 34 35 36 37 38 39 40 41 42 43 44 45 46 47 48 49 50
000
ASCA42 TJSJ 220811
RWRPR
PUERTO RICO/U.S. VIRGIN ISLANDS HOURLY WEATHER ROUNDUP
NATIONAL WEATHER SERVICE SAN JUAN PR
400 AM AST WED OCT 22 2014

PRZ001-004-220900-
PUERTO RICO

CITY           SKY/WX    TMP DP  RH WIND       PRES   REMARKS
SAN JUAN LMM   PTCLDY    81  73  78 CALM      29.93F
CEIBA          PTCLDY    79  73  83 E3        29.95F
$$

PRZ006-007-220900-
U.S. VIRGIN ISLANDS

CITY           SKY/WX    TMP DP  RH WIND       PRES   REMARKS
CHRISTIANSTED  PTCLDY    75  72  88 NE5       29.93F
$$

HOURLY WEATHER ROUNDUP FOR THE NEWS MEDIA

CITY           SKY/WX    TMP DP  RH WIND       PRES   REMARKS
MIAMI          CLOUDY    75  72  90 CALM      29.91F
ORLANDO        CLOUDY    71  70  96 CALM      29.93S
NEW YORK       TSTM      56  52  86 E14       29.88R FOG
NEWARK         CLOUDY    56  54  93 N15       29.87F
CHICAGO        CLOUDY    47  39  74 CALM      30.27R
HARTFORD       CLOUDY    54  52  93 N9        29.92F
BOSTON         CLOUDY    51  49  92 N14       29.97F
DALLAS         PTCLDY    66  59  78 CALM      30.07R
PHILADELPHIA   CLOUDY    57  50  77 N15       29.84F



USA.gov is the U.S. government's official web portal to all federal, state and local government web resources and services.